www.pogodaiklimat.ru
ПОГОДА в Слуцке
Время
(UTC), дата
15 22.05
18 22.05
21 22.05
00 23.05
03 23.05
06 23.05
09 23.05
12 23.05
15 23.05
18 23.05
21 23.05
00 24.05
03 24.05
06 24.05
09 24.05
12 24.05
15 24.05
18 24.05
21 24.05
00 25.05
03 25.05
06 25.05
09 25.05
12 25.05
15 25.05
18 25.05
21 25.05
00 26.05
03 26.05
06 26.05
09 26.05
12 26.05
15 26.05
18 26.05
21 26.05
00 27.05
03 27.05
06 27.05
09 27.05
12 27.05
15 27.05
18 27.05
21 27.05
00 28.05
03 28.05
06 28.05
09 28.05
12 28.05
15 28.05
18 28.05
21 28.05
00 29.05
03 29.05
06 29.05
09 29.05
12 29.05
Ветер
(напр.,м/с)
Видим. Явления Облачность Т
(С)
Тd
(С)
f
(%)
Тe
(С)
Тes
(С)
Комфортность P
(гПа)
Po
(гПа)
Тmin
(С)
Tmax
(С)
R
(мм)
R24
(мм)
S
(см)
С 5 23 км 10/8 600 м
[Cb cap Ci sp]
+10.6 +2.7 58 +8 +8 1019.2 999.6
СВ 1 15 км {ливн. осадки} 8/3 600 м
[Cb cap Ac cast]
+8.8 +5.9 82 +8 +8 1020.0 1000.3 +11.9 0.0
СЗ 2 15 км {ливн. осадки} 9/8 600 м
[Cb cap Ac trans Ci sp]
+6.8 +5.3 90 +4 +4 1020.6 1000.7
СЗ 3 12 км {ливн. осадки} 9/0
[Ac trans]
+6.8 +5.3 90 +4 +4 1020.6 1000.7
С 2 7000 м дымка ясно +4.2 +3.6 96 +1 +2 1021.3 1001.2
СВ 4 15 км 3/3 600 м
[Cu hum]
+10.7 +3.2 60 +9 +12 1022.0 1002.4 +4.1 0.0
СВ 3
{11}
17 км 8/8 1000 м
[Cu med, cong]
+12.1 +2.0 50 +11 +13 1022.7 1003.0
СВ 4 15 км 9/9 600 м
[Cu Sc]
+13.1 +2.6 49 +12 +13 1022.5 1003.0
В 1 18 км 6/6 600 м
[Cu hum]
+15.5 +2.3 41 +16 +19 1021.3 1002.0
ЮЗ 2 15 км 3/0
[Ci sp]
+12.1 +3.6 56 +11 +11 1020.8 1001.3 +16.3
ЮЗ 3 13 км 1/0
[Ac trans]
+7.9 +2.6 69 +5 +5 1021.0 1001.1
З 1 12 км 1/0
[Ci fib]
+4.6 +2.5 86 +3 +3 1020.5 1000.5
штиль 0 13 км 9/0
[Ac trans]
+6.0 +2.5 78 +5 +5 1019.7 999.7
Ю 2 18 км 9/0
[Ac trans]
+11.1 +4.5 64 +10 +13 1018.6 999.0 +3.7
ЮЗ 4 20 км 9/0
[Ac und]
+14.3 +2.5 45 +13 +17 1018.1 998.8
ЮЗ 3 20 км 10/3 600 м
[Cu hum Cs]
+16.5 +2.8 40 +16 +23 1017.5 998.3
З 6 18 км 10/6 600 м
[Sc As trans]
+14.4 +7.2 62 +13 +13 1017.6 998.3
СЗ 4 13 км 9/4 600 м
[Cb cap Ac und]
+10.5 +6.3 75 +8 +8 1019.2 999.6 +16.9
З 1 10 км слаб. ливневой дождь 9/8 600 м
[Cb cap Ac und]
+8.9 +8.1 95 +8 +8 1020.3 1000.6
Ю 1 8000 м ливневой дождь 9/9 870 м
[Cb cap]
+8.8 +8.7 99 +8 +8 1020.3 1000.6
Ю 1 7000 м дымка {ливн. осадки} 9/9 1020 м
[Sc]
+8.8 +8.8 100 +8 +8 1020.7 1001.0
З 2 11 км {ливн. осадки} 9/8 600 м
[Cb cap Ac cast]
+10.5 +8.8 89 +9 +10 1021.6 1002.0 +8.5 1
ЮЗ 2 15 км 9/9 660 м
[Cb cap Ac cast]
+12.6 +8.7 77 +12 +13 1022.3 1002.8
С 6 15 км 9/8 600 м
[Cb cap Ac trans]
+12.4 +7.3 71 +10 +11 1022.5 1003.0
С 4 14 км 6/3 600 м
[Cu Sc Ci sp]
+15.3 +7.3 59 +14 +16 1022.6 1003.2
штиль 0 16 км 8/5 600 м
[Sc diur, vesp Ci sp]
+14.1 +7.8 66 +14 +14 1023.9 1004.5 +16.9
штиль 0 10 км 3/3 600 м
[Sc]
+7.9 +6.7 92 +7 +7 1025.1 1005.2
С 1 8000 м дымка 5/5 600 м
[Sc]
+5.7 +5.0 95 +4 +4 1025.5 1005.4
штиль 0 8000 м дымка 9/9 600 м
[Sc]
+8.4 +7.3 93 +7 +8 1026.2 1006.4
СВ 1 10 км {ливн. осадки} 9/3 600 м
[Sc Ac As]
+11.1 +8.5 84 +11 +13 1027.3 1007.5 +5.2 0.0
В 1 12 км 9/3 600 м
[Cu hum Ac trans]
+15.2 +9.1 67 +16 +22 1027.6 1008.1
ЮВ 2 15 км 9/5 600 м
[Sc Ac trans]
+16.8 +8.0 56 +17 +21 1027.2 1007.8
В 2 20 км 4/3 600 м
[Sc diur, vesp Ac trans Ci fib]
+18.4 +7.8 50 +19 +22 1025.9 1006.8
штиль 0 14 км 8/3 1000 м
[Sc diur, vesp Ac trans]
+16.2 +8.9 62 +16 +16 1026.3 1007.0 +19.2
СВ 2 12 км 9/0
[Ac trans]
+11.7 +8.7 82 +11 +11 1026.5 1006.8
штиль 0 10 км 8/0
[Ac trans Ci sp]
+10.7 +8.6 87 +10 +10 1025.9 1006.2
С 2 12 км 9/0
[Ac und]
+10.2 +8.5 89 +9 +9 1025.5 1005.8
СВ 1 14 км 9/4 600 м
[Cb cap Ac und]
+13.8 +9.4 75 +14 +16 1025.5 1006.1 +8.9
СЗ 1 17 км 8/4 600 м
[Cu med, cong Ci sp]
+17.3 +10.2 63 +18 +28 1025.0 1005.7
ЮВ 3 18 км 9/6 600 м
[Sc Ac cast Ci]
+19.4 +4.7 38 +20 +23 1023.3 1004.2
Ю 2 18 км 9/5 600 м
[Cb cap Ci sp]
+17.5 +7.0 50 +18 +20 1023.6 1004.3
штиль 0 18 км 6/3 600 м
[Sc diur, vesp Ac lent Ci sp]
+15.8 +9.2 65 +16 +16 1023.6 1004.3 +22.0
штиль 0 14 км 6/4 600 м
[Sc Ac lent]
+11.1 +9.0 87 +10 +10 1024.3 1004.6
штиль 0 8000 м дымка 3/3 600 м
[Sc Ci fib]
+9.5 +9.0 97 +9 +9 1023.6 1003.8
штиль 0 3300 м дымка 3/0
[Ac trans Ci fib]
+6.3 +6.3 100 +5 +6 1023.1 1003.1
штиль 0 10 км 3/0
[Ci fib]
+14.5 +10.1 75 +14 +23 1022.5 1003.1 +5.7
СЗ 1 18 км 5/4 600 м
[Cu med, cong Ci fib]
+20.3 +8.6 47 +23 +33 комфорт 1021.1 1002.2
СВ 3 18 км 8/8 600 м
[Cu Sc]
+20.2 +3.8 34 +21 +23 комфорт 1020.0 1001.1
СВ 2 19 км 8/8 600 м
[Cu Sc]
+19.6 +7.0 44 +21 +22 комфорт 1018.5 999.5
С 4 15 км 8/4 600 м
[Sc diur, vesp Ac und Ci]
+16.9 +6.7 51 +16 +16 1018.3 999.1 +22.9
С 4 15 км 9/5 600 м
[Sc diur, vesp Ac und]
+13.4 +7.0 65 +12 +12 1017.9 998.5
СВ 3 13 км 9/8 600 м
[Sc Ac und]
+12.0 +7.3 73 +10 +10 1016.3 996.9
СВ 2 15 км 9/5 600 м
[Sc Ac cast Cc]
+11.9 +8.6 80 +11 +11 1016.4 997.0
СВ 4
{11}
16 км 10/4 600 м
[Sc As trans]
+13.2 +9.3 77 +12 +13 1015.8 996.4 +11.0
СВ 7-11
{12}
15 км 10/6 600 м
[Cb cap As op]
+13.7 +9.5 76 +11 +12 1015.5 996.2
СВ 8-12
{12}
18 км 10/8 600 м
[Sc As op]
+14.1 +9.5 74 +12 +12 1015.1 995.9
Местоположение метеостанции Слуцк (Минская область, Беларусь): широта 53.03 долгота 27.55 высота над уровнем моря 162 м.
В архиве по умолчанию представлена погода в Слуцке за последнюю неделю. Архивные данные за месяц целиком и за предыдущие месяцы, начиная с января 2011 года, Вы можете получить, выбрав интересующий диапазон дат из раскрывающегося списка и нажав кнопку "Найти!".
*Определитесь, кто Вы:
Внимание! Время в таблицах - всемирное. Для получения местного времени необходимо прибавить поправку, которая равна 3 ч.
Смотрите также архив погоды в соседних городах и на ближайших метеорологических станциях:
Партнеры нашего сайта:      
Пояснения к столбцам:
  • Ветер - указаны скорость ветра в м/с - средняя за 10 мин, порывы в срок и между сроками (в фигурных скобках) и направление, откуда дует ветер: С - северный,
  • СВ - северо-восточный, В - восточный, ЮВ - юго-восточный, Ю - южный, ЮЗ - юго-западный, З - западный, СЗ - северо-западный.
  • Видимость - горизонтальная дальность видимости в метрах или километрах. При видимости от 1 до 10 км при отсутствии осадков обычно наблюдается дымка, при ухудшении видимости до 1 км и менее - туман. В сухую погоду видимость может ухудшаться дымом, пылью или мглою.
  • Явления - указаны атмосферные явления, наблюдавшиеся в срок или в последний час перед сроком; фигурными скобками обозначены явления, наблюдавшиеся между сроками (за 1-3 часа до срока); квадратными скобками обозначены град или гололедные отложения с указанием их диаметра в мм.
  • Облачность - указаны через наклонную черту общая и нижняя облачность в баллах и высота нижней границы облаков в метрах; квадратными скобками обозначены формы облаков: Ci - перистые, Cs - перисто-слоистые, Cc - перисто-кучевые, Ac - высококучевые, As - высокослоистые, Sc - слоисто-кучевые, Ns - слоисто-дождевые, Cu - кучевые, Cb - кучево-дождевые. Подробнее классификацию облаков см. в Атласе облаков (PDF).
  • T - Температура воздуха - температура, измеренная на высоте 2 м над землей.
  • Td - Температура точки росы - температура, при понижении до которой содержащийся в воздухе водяной пар достигнет насыщения.
  • f - Относительная влажность воздуха - влажноcть воздуха, измеренная на высоте 2 м над землей.
  • Te - Эффективная температура - температура, которую ощущает одетый по сезону человек в тени. Характеристика душности погоды. При расчете учитывается влияние влажности воздуха и скорости ветра на теплоощущения человека.
  • Tes - Эффективная температура на солнце - температура, которую ощущает человек, с поправкой на солнечный нагрев. Характеристика знойности погоды. Зависит от высоты солнца над горизонтом, облачности и скорости ветра. Ночью, в пасмурную погоду, а также при ветре 12 м/с и более поправка равна нулю.
  • P - Атмосферное давление - приведенное к уровню моря атмосферное давление.
  • Po - Атмосферное давление - измеренное на уровне метеостанции атмосферное давление.
  • Tmin - Минимальная температура - минимум температуры воздуха на высоте 2 м над землей.
  • Tmax - Максимальная температура - максимум температуры воздуха на высоте 2 м над землей.
  • R - Количество осадков - Количество выпавших осадков за период времени, мм. При наведении курсора мыши на число - период времени, за который выпало указанное количество осадков.
  • R24 - Количество осадков - Количество выпавших осадков за 24 часа, мм.
  • S - Снежный покров - Высота снежного покрова, см. При наведении курсора мыши на число - состояние снежного покрова и степень покрытия местности в баллах.